Location: Dos Palmas
(32.4468°N, 116.8732°W)
Time: 05:40:43
(UTC+00:00)

OAO 3 Rocket - Pass Details

Date: 20 June 2021
Orbit: 629 x 682 km, 35.0° (Epoch: 29 July)

Event Time Altitude Azimuth Distance (km) Brightness Sun altitude
Exits shadow 11:38:22 15° 251° (WSW) 1,697 4.7 -11.8°
Maximum altitude 11:42:14 85° 165° (SSE) 652 3.1 -11.2°
Drops below altitude 10° 11:47:03 10° 76° (ENE) 2,060 7.0 -10.4°
Sets 11:49:26 0° 76° (ENE) 2,982 8.0 -10.0°
